JQ1YUX-13 Tokyo Ota-ku JP current weather conditions

sailwx.info

Wind from 261

Air temperature 24.4° C
Dewpoint 22.7° C

Last reported at 2015-Jul-02 07:38 UTC.
Time now 2015-Jul-02 08:05 UTC

Location: N 35°35' E 139°40'.
View on Google Maps.

See reports from other nearby stations

  
Tides and Currents Weather Stations Pressure Air Temp Water Temp Dewpoint Dewpoint Depression Visibility Wind Speed Wind Dir Waves Ship Positions
date/time (UTC)wind fromknots sea level pressurealtimeterstation pressurevisibilityair tempwater tempwave heightnotes
2015-Jul-02 07:38 261 24.4
2015-Jul-02 07:28 223 24.4
2015-Jul-02 07:08 238 0 gusting 4 24.4
2015-Jul-02 06:58 219 24.4
2015-Jul-02 06:38 250 24.4
2015-Jul-02 06:28 209 0 24.4
2015-Jul-02 06:08 230 2 gusting 6 24.4
2015-Jul-02 05:58 229 1 gusting 6 24.4
2015-Jul-02 05:38 202 2 gusting 6 24.4
2015-Jul-02 05:28 200 2 gusting 5 24.4
2015-Jul-02 05:08 219 1 gusting 5 25.0
2015-Jul-02 04:58 204 2 gusting 6 25.0
2015-Jul-02 04:38 221 2 gusting 6 24.4
2015-Jul-02 04:28 227 2 gusting 3 24.4
2015-Jul-02 04:08 208 1 gusting 5 24.4
2015-Jul-02 03:58 224 3 gusting 4 23.9
2015-Jul-02 03:38 203 1 gusting 5 23.3
2015-Jul-02 03:28 222 23.3
2015-Jul-02 03:08 191 22.8
2015-Jul-02 02:58 191 22.2
2015-Jul-02 02:38 182 22.8
2015-Jul-02 02:28 180 22.2
2015-Jul-02 02:08 023 22.8
2015-Jul-02 01:58 350 22.8
2015-Jul-02 01:38 350 22.8
2015-Jul-02 01:28 350 22.8
2015-Jul-02 01:08 350 22.8
2015-Jul-02 00:58 349 22.8
2015-Jul-02 00:38 349 23.3
2015-Jul-02 00:28 350 23.3
2015-Jul-02 00:08 350 23.9
2015-Jul-01 23:58 350 23.9
2015-Jul-01 23:38 021 23.9
2015-Jul-01 23:28 022 23.9
2015-Jul-01 23:08 021 23.9
2015-Jul-01 22:58 022 23.9
2015-Jul-01 22:38 022 23.3
2015-Jul-01 22:28 021 22.8
2015-Jul-01 22:08 015 22.8
2015-Jul-01 21:58 344 22.8
2015-Jul-01 21:38 344 22.2
2015-Jul-01 21:28 344 21.7
2015-Jul-01 21:08 344 21.7
2015-Jul-01 20:58 344 21.1
2015-Jul-01 20:38 344 21.1
2015-Jul-01 20:28 344 21.1
2015-Jul-01 20:08 344 21.1
2015-Jul-01 19:58 344 21.1
2015-Jul-01 19:38 344 21.1
2015-Jul-01 19:28 344 21.1
2015-Jul-01 19:08 344 21.1
2015-Jul-01 18:58 344 21.1
2015-Jul-01 18:38 344 21.1
2015-Jul-01 18:28 344 21.1
2015-Jul-01 18:08 344 21.1
2015-Jul-01 17:58 344 21.1
2015-Jul-01 17:38 344 21.1
2015-Jul-01 17:28 344 21.1
2015-Jul-01 17:08 344 21.1
2015-Jul-01 16:58 344 21.1
2015-Jul-01 16:38 344 21.1
2015-Jul-01 16:28 344 21.1
2015-Jul-01 16:08 344 21.1
2015-Jul-01 15:58 344 21.1
2015-Jul-01 15:38 344 21.1
2015-Jul-01 15:28 344 21.1
2015-Jul-01 15:08 344 21.1
2015-Jul-01 14:58 344 21.1
2015-Jul-01 14:38 344 21.7
2015-Jul-01 14:28 344 21.7
2015-Jul-01 14:08 344 21.7
2015-Jul-01 13:58 344 21.7
2015-Jul-01 13:38 344 21.7
2015-Jul-01 13:28 344 21.7
2015-Jul-01 13:08 344 21.7
2015-Jul-01 12:58 344 21.7
2015-Jul-01 12:38 344 21.7
2015-Jul-01 12:28 344 21.7
2015-Jul-01 12:08 344 21.7
2015-Jul-01 11:58 344 21.1
2015-Jul-01 11:38 344 21.1
2015-Jul-01 11:28 344 21.1
2015-Jul-01 11:08 344 21.1
2015-Jul-01 10:58 344 21.1
2015-Jul-01 10:38 344 21.1
2015-Jul-01 10:28 344 21.7
2015-Jul-01 10:08 344 21.7
2015-Jul-01 09:58 344 21.7
2015-Jul-01 09:38 344 21.1
2015-Jul-01 09:28 344 21.1
2015-Jul-01 09:08 344 21.1
2015-Jul-01 08:58 344 21.1
2015-Jul-01 08:38 344 21.1
2015-Jul-01 08:28 344 21.1
2015-Jul-01 08:08 337 21.1
2015-Jul-01 07:58 297 20.6
2015-Jul-01 07:38 337 0 20.6
2015-Jul-01 07:28 276 2 gusting 3 20.6
2015-Jul-01 07:08 238 20.6
2015-Jul-01 06:58 333 20.6
2015-Jul-01 06:38 333 21.1
2015-Jul-01 06:28 022 0 gusting 5 21.1
2015-Jul-01 06:08 229 21.1
2015-Jul-01 05:58 291 0 gusting 4 21.1
2015-Jul-01 05:38 334 21.7
2015-Jul-01 05:28 334 21.7
2015-Jul-01 05:08 339 22.2
2015-Jul-01 04:58 291 22.2
2015-Jul-01 04:38 286 21.7
2015-Jul-01 04:28 267 21.7
2015-Jul-01 04:08 227 21.7
2015-Jul-01 03:58 227 21.7
2015-Jul-01 03:38 226 21.7
2015-Jul-01 03:28 226 21.7
2015-Jul-01 03:08 226 21.7
2015-Jul-01 02:58 227 21.7
2015-Jul-01 02:38 227 21.1
2015-Jul-01 02:28 227 21.1
2015-Jul-01 02:08 227 21.1
2015-Jul-01 01:58 227 21.1
2015-Jul-01 01:38 227 20.6
2015-Jul-01 01:28 227 20.6
2015-Jul-01 01:08 227 20.6
2015-Jul-01 00:58 227 20.6
2015-Jul-01 00:38 227 20.6
2015-Jul-01 00:28 227 20.0
2015-Jul-01 00:08 226 20.0
2015-Jun-30 23:58 227 20.0
2015-Jun-30 23:38 227 20.0
2015-Jun-30 23:28 226 20.0
2015-Jun-30 23:08 227 20.0
2015-Jun-30 22:58 227 20.0
2015-Jun-30 22:38 227 20.0
2015-Jun-30 22:28 227 20.0
2015-Jun-30 22:08 227 19.4
2015-Jun-30 21:58 227 19.4
2015-Jun-30 21:38 227 19.4
2015-Jun-30 21:28 227 19.4
2015-Jun-30 21:08 227 19.4
2015-Jun-30 20:58 227 19.4
2015-Jun-30 20:38 227 19.4
2015-Jun-30 20:28 227 19.4
2015-Jun-30 20:08 181 19.4
2015-Jun-30 19:58 180 20.0
2015-Jun-30 19:38 239 20.0
2015-Jun-30 19:28 238 20.0
2015-Jun-30 19:07 203 0 gusting 5 20.0
2015-Jun-30 18:58 214 0 gusting 3 20.0
2015-Jun-30 18:37 215 20.6
2015-Jun-30 18:28 214 20.6
2015-Jun-30 18:07 214 20.6
2015-Jun-30 17:58 214 20.6
2015-Jun-30 17:37 215 20.6
2015-Jun-30 17:28 214 20.6
2015-Jun-30 17:07 215 20.6
2015-Jun-30 16:58 214 20.6
2015-Jun-30 16:37 215 0 gusting 4 20.6
2015-Jun-30 16:28 215 20.6
2015-Jun-30 16:07 215 0 gusting 3 20.6
2015-Jun-30 15:58 214 20.6
2015-Jun-30 15:37 214 20.6
2015-Jun-30 15:28 214 20.6
2015-Jun-30 15:07 214 20.6
2015-Jun-30 14:58 215 20.6
2015-Jun-30 14:37 215 21.1
2015-Jun-30 14:28 215 21.1
2015-Jun-30 14:07 214 21.1
2015-Jun-30 13:58 215 21.1
2015-Jun-30 13:37 186 21.1
2015-Jun-30 13:28 186 21.7
2015-Jun-30 13:07 199 21.7
2015-Jun-30 12:58 165 21.7
2015-Jun-30 12:37 196 0 gusting 4 22.2
2015-Jun-30 12:28 200 22.2
2015-Jun-30 12:07 226 22.2
2015-Jun-30 11:58 192 0 22.2
2015-Jun-30 11:37 214 0 gusting 4 22.2
2015-Jun-30 11:28 215 22.2
2015-Jun-30 11:07 200 0 gusting 3 22.2
2015-Jun-30 10:58 190 1 gusting 1 22.2
2015-Jun-30 10:37 214 22.2
2015-Jun-30 10:28 196 3 gusting 6 22.2
2015-Jun-30 10:07 227 0 gusting 4 22.8
2015-Jun-30 09:58 217 1 gusting 5 22.8
2015-Jun-30 09:37 188 1 gusting 6 22.8
2015-Jun-30 09:28 241 1 gusting 4 22.8
2015-Jun-30 09:07 239 2 gusting 5 22.8
2015-Jun-30 08:58 225 0 gusting 5 23.3
2015-Jun-30 08:37 198 2 gusting 6 23.3
2015-Jun-30 08:28 237 4 gusting 8 23.3
2015-Jun-30 08:07 196 2 gusting 4 23.9